This is the latest recevied weather packets stored in our database for station/object CE3RCJ-14. If no packets are shown the sender has not sent any weather packets the latest 10 day(s).
| Time | Temp. | Humidity | Pressure | Rain* | Wind** | Luminosity | Snow |
|---|---|---|---|---|---|---|---|
| 1777834382 | 21.67° C | 34% | 1015.2 hPa | - | - | - | - |
| 1777833782 | 21.67° C | 34% | 1015.2 hPa | - | - | - | - |
| 1777833483 | 21.67° C | 34% | 1015.2 hPa | - | - | - | - |
| 1777832582 | 21.11° C | 35% | 1015.2 hPa | - | - | - | - |
| 1777829582 | 20.56° C | 37% | 1016 hPa | - | - | - | - |
| 1777828397 | 20.56° C | 37% | 1016.3 hPa | - | - | - | - |
| 1777827782 | 20° C | 37% | 1016.5 hPa | - | - | - | - |
| 1777826582 | 20° C | 37% | 1016.6 hPa | - | - | - | - |
| 1777826282 | 20° C | 37% | 1016.7 hPa | - | - | - | - |
| 1777825082 | 20° C | 38% | 1016.8 hPa | - | - | - | - |
| 1777822082 | 18.89° C | 39% | 1017.3 hPa | - | - | - | - |
| 1777816083 | 15° C | 45% | 1018.7 hPa | - | - | - | - |
| 1777815782 | 15° C | 45% | 1018.9 hPa | - | - | - | - |
| 1777815182 | 14.44° C | 46% | 1019.3 hPa | - | - | - | - |
| 1777814583 | 13.89° C | 47% | 1019.4 hPa | - | - | - | - |
| 1777813682 | 13.33° C | 48% | 1019.4 hPa | - | - | - | - |
| 1777813382 | 13.33° C | 49% | 1019.5 hPa | - | - | - | - |
| 1777809498 | 11.67° C | 51% | 1019.3 hPa | - | - | - | - |
| 1777808582 | 12.22° C | 51% | 1018.8 hPa | - | - | - | - |
| 1777808282 | 12.22° C | 51% | 1018.7 hPa | - | - | - | - |
| 1777806497 | 12.22° C | 51% | 1018.4 hPa | - | - | - | - |
| 1777804982 | 12.78° C | 50% | 1018.2 hPa | - | - | - | - |
| 1777803482 | 12.78° C | 50% | 1018.3 hPa | - | - | - | - |
| 1777799882 | 13.33° C | 49% | 1017.7 hPa | - | - | - | - |
| 1777799582 | 13.33° C | 49% | 1017.5 hPa | - | - | - | - |
* Rain since midnight (hover to see other rain measurements)
** Current wind speed in m/s (hover to see current wind gust speed)